DELTA 1 DEB, 3123

Orbit data source: Space-Track

DELTA 1 DEB, 3123 is space debris in SSO originally from a launch on Fri, 10 Nov 1967 UTC launched from the Air Force Western Test Range (AFWTR). Debris objects in space refer to the collection of defunct objects orbiting the Earth. Examples of debris include non-operational satellites, rocket bodies, and fragments generated from explosions, collisions, or faulty payload assembly.

Loading next visibility...
Identifier
3123, 1967-114D
Orbit
SSO
Country
Flag of USUS
Related business
Manufacturer
Unknown
Mission
Spacecraft
Bus & Motor
Unknown
Mass
Unknown
Launch date (UTC)
1967-11-10 (58 years ago)
Launch vehicle
Unknown
Launch site
Air Force Western Test Range (AFWTR)
Object type
Payload
Rocket body
Debris
Shape & HBR
Unknown shape, 0.1 m
Radar Cross Section
Small (<0.1 m²)

Expand to show TLE details & history
Last TLE update: 4 days ago

TLE from 4 days ago
0 DELTA 1 DEB
1 03123U 67114D   25307.24800758 -.00000035  00000-0  87346-4 0  9990
2 03123 102.4474  68.5410 0028140 318.5659 105.1473 12.48096655640578
Epoch: 2025-11-03T05:57Z
TLE epoch observation values (Epoch: 2025-11-03T05:57:07.854Z)
Latitude
61.47393°
Longitude
-87.32907°
Altitude
1,488.6 km
Speed
7.123 km/s
True Right ascension
02h 58m 49s
True Declination
61° 20' 34"
Sunlit
Object was in full shadow at epoch
Visualization orbit readout
Latitude
Unknown
Longitude
Unknown
Altitude
Unknown
Speed
Unknown
Apparent Right ascension
Unknown
Apparent Declination
Unknown
Sunlit
N/A
Visualization observer readout
Local Sidereal Time
08:07:22
Azimuth
Unknown
Elevation
Unknown
Doppler factor
Unknown
Orbital elements
Apogee altitude
1,492.142 km
Perigee altitude
1,447.973 km
Semi-major axis
7,848.195 km
Eccentricity
0.00281
Inclination
102.4474°
RAAN
68.541°
Arg. of periapsis
318.5659°
True anomaly
105.45827°
Mean anomaly
105.1473°
Eccentric anomaly
105.30281°
Mean motion
3.12168 °/min
Orbital period
115.32 mins
BSTAR
0.000087346
Loading maneuver chart data...
Computing Atmospheric mass density...
Loading historical data...
Loading historical data...
Loading historical data...
Loading historical data...
Loading historical data...
Loading historical data...
Loading historical data...
Other satellites on launch #114 in the year 1967 (1967-11-10 UTC)

Documentation

Showing up to 5 results
|